• En España
  • Lista de países
  • Para 7 días
  • Temperatura del agua
  • Mapa Satelital
  • El tiempo en el mapa
  • Informadores
  • user-avatar
    Iniciar sesión

    Tiempo cada hora Luanda

    Hoy, 22 Julio, Domingo

    Tiempo Temperatura Precipitaciones Viento Presión Humedad
    00:00 +21°C° 0 mm 2 mps 756 mmHg 90%
    01:00 +20°C° 0 mm 2 mps 756 mmHg 92%
    02:00 +20°C° 0 mm 2 mps 755 mmHg 93%
    03:00 +20°C° 0 mm 2 mps 755 mmHg 94%
    04:00 +20°C° 0 mm 2 mps 755 mmHg 95%
    05:00 +20°C° 0 mm 2 mps 755 mmHg 94%
    06:00 +20°C° 0 mm 2 mps 755 mmHg 94%
    07:00 +20°C° 0 mm 2 mps 755 mmHg 93%
    08:00 +24°C° 0 mm 2 mps 755 mmHg 78%
    09:00 +27°C° 0 mm 3 mps 756 mmHg 63%
    10:00 +29°C° 0 mm 3 mps 756 mmHg 48%
    11:00 +33°C° 0 mm 3 mps 755 mmHg 41%
    12:00 +35°C° 0 mm 4 mps 755 mmHg 33%
    13:00 +38°C° 0 mm 4 mps 754 mmHg 26%
    14:00 +36°C° 0 mm 5 mps 753 mmHg 34%
    15:00 +34°C° 0 mm 6 mps 753 mmHg 41%
    16:00 +32°C° 0 mm 7 mps 752 mmHg 49%
    17:00 +29°C° 0 mm 7 mps 753 mmHg 59%
    18:00 +27°C° 0 mm 6 mps 753 mmHg 69%
    19:00 +23°C° 0 mm 6 mps 754 mmHg 79%
    20:00 +23°C° 0 mm 4 mps 754 mmHg 82%
    21:00 +22°C° 0 mm 3 mps 755 mmHg 85%
    22:00 +23°C° 0 mm 2 mps 756 mmHg 88%
    23:00 +21°C° 0 mm 2 mps 756 mmHg 90%

    Mañana, 23 Julio, Lunes

    Tiempo Temperatura Precipitaciones Viento Presión Humedad
    00:00 +22°C° 0 mm 1 mps 756 mmHg 91%
    01:00 +22°C° 0 mm 1 mps 756 mmHg 92%
    02:00 +21°C° 0 mm 1 mps 755 mmHg 93%
    03:00 +21°C° 0 mm 1 mps 755 mmHg 94%
    04:00 +21°C° 0 mm 1 mps 755 mmHg 95%
    05:00 +21°C° 0 mm 1 mps 755 mmHg 95%
    06:00 +21°C° 0 mm 1 mps 755 mmHg 95%
    07:00 +21°C° 0 mm 1 mps 756 mmHg 95%
    08:00 +24°C° 0 mm 1 mps 756 mmHg 81%
    09:00 +26°C° 0 mm 1 mps 756 mmHg 67%
    10:00 +29°C° 0 mm 1 mps 757 mmHg 53%
    11:00 +31°C° 0 mm 2 mps 756 mmHg 47%
    12:00 +33°C° 0 mm 3 mps 755 mmHg 41%
    13:00 +35°C° 0 mm 3 mps 754 mmHg 34%
    14:00 +34°C° 0 mm 4 mps 754 mmHg 41%
    15:00 +32°C° 0 mm 5 mps 753 mmHg 48%
    16:00 +30°C° 0 mm 6 mps 752 mmHg 55%
    17:00 +28°C° 0 mm 5 mps 753 mmHg 63%
    18:00 +26°C° 0 mm 5 mps 753 mmHg 72%
    19:00 +23°C° 0 mm 5 mps 754 mmHg 80%
    20:00 +22°C° 0 mm 4 mps 754 mmHg 84%
    21:00 +22°C° 0 mm 3 mps 755 mmHg 87%
    22:00 +21°C° 0 mm 2 mps 756 mmHg 90%
    23:00 +21°C° 0 mm 2 mps 756 mmHg 92%

    Pasado mañana, 24 Julio, Martes

    Tiempo Temperatura Precipitaciones Viento Presión Humedad
    00:00 +22°C° 0 mm 1 mps 756 mmHg 93%
    01:00 +21°C° 0 mm 1 mps 756 mmHg 94%
    02:00 +21°C° 0 mm 1 mps 756 mmHg 95%
    03:00 +21°C° 0 mm 1 mps 755 mmHg 96%
    04:00 +21°C° 0 mm 1 mps 755 mmHg 97%
    05:00 +21°C° 0 mm 1 mps 755 mmHg 96%
    06:00 +22°C° 0 mm 1 mps 756 mmHg 95%
    07:00 +22°C° 0 mm 1 mps 756 mmHg 94%
    08:00 +24°C° 0 mm 1 mps 756 mmHg 82%
    09:00 +26°C° 0 mm 2 mps 756 mmHg 70%
    10:00 +28°C° 0 mm 2 mps 756 mmHg 58%
    11:00 +30°C° 0 mm 2 mps 756 mmHg 52%
    12:00 +33°C° 0 mm 3 mps 755 mmHg 45%
    13:00 +34°C° 0 mm 3 mps 754 mmHg 39%
    14:00 +33°C° 0 mm 4 mps 754 mmHg 47%
    15:00 +30°C° 0 mm 5 mps 753 mmHg 54%
    16:00 +28°C° 0 mm 6 mps 752 mmHg 62%
    17:00 +27°C° 0 mm 5 mps 753 mmHg 69%
    18:00 +25°C° 0 mm 5 mps 753 mmHg 76%
    19:00 +23°C° 0 mm 4 mps 754 mmHg 83%
    20:00 +22°C° 0 mm 3 mps 754 mmHg 86%
    21:00 +23°C° 0 mm 2 mps 755 mmHg 89%
    22:00 +23°C° 0 mm 1 mps 756 mmHg 91%
    23:00 +23°C° 0 mm 1 mps 756 mmHg 91%

    25 Julio, Miércoles

    Tiempo Temperatura Precipitaciones Viento Presión Humedad
    00:00 +23°C° 0 mm 1 mps 756 mmHg 90%
    01:00 +23°C° 0 mm 1 mps 756 mmHg 90%
    02:00 +23°C° 0 mm 1 mps 756 mmHg 88%
    03:00 +23°C° 0 mm 1 mps 755 mmHg 87%
    04:00 +23°C° 0 mm 1 mps 755 mmHg 85%
    05:00 +23°C° 0 mm 2 mps 755 mmHg 85%
    06:00 +23°C° 0 mm 2 mps 756 mmHg 85%
    07:00 +23°C° 0 mm 2 mps 756 mmHg 84%
    08:00 +24°C° 0 mm 2 mps 756 mmHg 76%
    09:00 +26°C° 0 mm 2 mps 756 mmHg 69%
    10:00 +27°C° 0 mm 3 mps 757 mmHg 61%
    11:00 +29°C° 0 mm 3 mps 756 mmHg 55%
    12:00 +30°C° 0 mm 3 mps 755 mmHg 50%
    13:00 +33°C° 0 mm 4 mps 754 mmHg 44%
    14:00 +32°C° 0 mm 4 mps 754 mmHg 49%
    15:00 +29°C° 0 mm 5 mps 753 mmHg 55%
    16:00 +28°C° 0 mm 6 mps 753 mmHg 60%
    17:00 +27°C° 0 mm 6 mps 753 mmHg 67%
    18:00 +24°C° 0 mm 6 mps 754 mmHg 74%
    19:00 +23°C° 0 mm 5 mps 754 mmHg 81%
    20:00 +22°C° 0 mm 5 mps 755 mmHg 84%
    21:00 +22°C° 0 mm 4 mps 756 mmHg 87%
    22:00 +22°C° 0 mm 3 mps 756 mmHg 90%
    23:00 +23°C° 0 mm 2 mps 756 mmHg 88%

    26 Julio, Jueves

    Tiempo Temperatura Precipitaciones Viento Presión Humedad
    00:00 +23°C° 0 mm 2 mps 756 mmHg 86%
    01:00 +24°C° 0 mm 1 mps 756 mmHg 84%
    02:00 +24°C° 0,1 mm 1 mps 756 mmHg 83%
    03:00 +24°C° 0,1 mm 1 mps 756 mmHg 82%
    04:00 +24°C° 0,1 mm 1 mps 756 mmHg 81%
    05:00 +24°C° 0,1 mm 1 mps 756 mmHg 80%
    06:00 +24°C° 0,1 mm 2 mps 757 mmHg 80%
    07:00 +24°C° 0,1 mm 2 mps 757 mmHg 80%
    08:00 +25°C° 0 mm 2 mps 757 mmHg 76%
    09:00 +25°C° 0 mm 2 mps 758 mmHg 72%
    10:00 +26°C° 0 mm 3 mps 758 mmHg 68%
    11:00 +27°C° 0 mm 3 mps 757 mmHg 63%
    12:00 +28°C° 0 mm 3 mps 756 mmHg 57%
    13:00 +30°C° 0 mm 3 mps 755 mmHg 52%
    14:00 +29°C° 0 mm 4 mps 755 mmHg 53%
    15:00 +29°C° 0 mm 5 mps 754 mmHg 55%
    16:00 +29°C° 0 mm 5 mps 754 mmHg 57%
    17:00 +27°C° 0 mm 5 mps 755 mmHg 65%
    18:00 +25°C° 0 mm 4 mps 755 mmHg 74%
    19:00 +23°C° 0 mm 4 mps 756 mmHg 82%
    20:00 +22°C° 0 mm 3 mps 756 mmHg 85%
    21:00 +22°C° 0 mm 3 mps 757 mmHg 89%
    22:00 +23°C° 0 mm 2 mps 757 mmHg 92%
    23:00 +21°C° 0 mm 2 mps 757 mmHg 93%

    27 Julio, Viernes

    Tiempo Temperatura Precipitaciones Viento Presión Humedad
    00:00 +22°C° 0 mm 1 mps 757 mmHg 94%
    01:00 +22°C° 0 mm 1 mps 756 mmHg 94%
    02:00 +22°C° 0,1 mm 1 mps 756 mmHg 91%
    03:00 +23°C° 0,1 mm 1 mps 756 mmHg 89%
    04:00 +23°C° 0,1 mm 1 mps 756 mmHg 86%
    05:00 +23°C° 0,1 mm 1 mps 756 mmHg 84%
    06:00 +24°C° 0,1 mm 1 mps 756 mmHg 83%
    07:00 +24°C° 0,1 mm 1 mps 757 mmHg 82%
    08:00 +24°C° 0,1 mm 1 mps 757 mmHg 77%
    09:00 +25°C° 0,1 mm 1 mps 757 mmHg 73%
    10:00 +26°C° 0,1 mm 1 mps 757 mmHg 68%
    11:00 +27°C° 0 mm 2 mps 757 mmHg 64%
    12:00 +28°C° 0 mm 2 mps 756 mmHg 59%
    13:00 +29°C° 0 mm 3 mps 755 mmHg 55%
    14:00 +29°C° 0 mm 3 mps 755 mmHg 55%
    15:00 +29°C° 0 mm 4 mps 754 mmHg 55%
    16:00 +29°C° 0 mm 4 mps 754 mmHg 55%
    17:00 +27°C° 0 mm 4 mps 755 mmHg 63%
    18:00 +25°C° 0 mm 4 mps 755 mmHg 71%
    19:00 +24°C° 0 mm 3 mps 756 mmHg 79%
    20:00 +22°C° 0 mm 3 mps 756 mmHg 82%
    21:00 +22°C° 0 mm 3 mps 757 mmHg 85%
    22:00 +21°C° 0 mm 3 mps 757 mmHg 89%
    23:00 +22°C° 0 mm 3 mps 757 mmHg 88%
    Mostrar más